This demonstration page uses our WeatherBlox Daily Observations layout. Learn more.

Left ArrowRight Arrow

Hourly Observations for August 25, 2021

Temp ( °F °C ) Dew Point ( °F °C ) Humidity (%) Winds ( mph kmh ) Pressure ( in mb ) Visibility ( mi km ) Precip ( " mm )
12:53 am 00:53 Hazy 65 18.3 33 0.6 31 31 W 3 6 29.87 1012 10 16 0.00 0.00
1:53 am 01:53 Hazy 64 17.8 37 2.8 37 37 WNW 3 6 29.88 1012 9 14 0.00 0.00
2:53 am 02:53 Hazy 63 17.2 37 2.8 38 38 Calm 29.88 1012 9 14 0.00 0.00
3:53 am 03:53 Hazy 61 16.1 37 2.8 41 41 Calm 29.90 1013 9 14 0.00 0.00
4:53 am 04:53 Hazy 60 15.6 40 4.4 47 47 Calm 29.91 1013 9 14 0.00 0.00
5:53 am 05:53 Hazy 59 15 37 2.8 44 44 Calm 29.92 1013 9 14 0.00 0.00
6:53 am 06:53 Hazy 57 13.9 36 2.2 45 45 Calm 29.94 1014 6 10 0.00 0.00
7:53 am 07:53 Hazy 65 18.3 36 2.2 34 34 Calm 29.96 1014 9 14 0.00 0.00
8:53 am 08:53 Sunny with Smoke 69 20.6 39 3.9 33 33 Calm 29.96 1015 8 13 0.00 0.00
9:53 am 09:53 Sunny with Smoke 74 23.3 42 5.6 32 32 VRB 3 6 29.96 1015 10 16 0.00 0.00
10:53 am 10:53 Sunny with Smoke 80 26.7 42 5.6 26 26 W 3 6 29.96 1015 10 16 0.00 0.00
11:53 am 11:53 Sunny with Smoke 82 27.8 43 6.1 25 25 W 3 6 29.95 1014 10 16 0.00 0.00
12:53 pm 12:53 Sunny with Smoke 86 30 44 6.7 23 23 SW 6 9 29.92 1013 10 16 0.00 0.00
1:53 pm 13:53 Sunny with Smoke 89 31.7 40 4.4 18 18 SSW 7 11 29.91 1013 10 16 0.00 0.00
2:53 pm 14:53 Sunny with Smoke 91 32.8 43 6.1 19 19 SSE 10 17 29.89 1012 10 16 0.00 0.00
3:53 pm 15:53 Sunny with Smoke 92 33.3 41 5 17 17 S 7 11 29.87 1011 10 16 0.00 0.00
4:53 pm 16:53 Sunny with Smoke 92 33.3 41 5 17 17 SSW 7 11 29.85 1011 10 16 0.00 0.00
5:53 pm 17:53 Sunny with Smoke 92 33.3 39 3.9 16 16 SSW 8 13 29.84 1011 10 16 0.00 0.00
6:53 pm 18:53 Sunny with Smoke 90 32.2 41 5 18 18 S 9 15 29.84 1011 10 16 0.00 0.00
7:53 pm 19:53 Clear with Smoke 84 28.9 45 7.2 25 25 SSE 7 11 29.85 1011 10 16 0.00 0.00
8:53 pm 20:53 Clear with Smoke 78 25.6 45 7.2 31 31 SE 6 9 29.88 1012 10 16 0.00 0.00
9:53 pm 21:53 Clear with Smoke 78 25.6 49 9.4 36 36 S 5 7 29.90 1012 8 13 0.00 0.00
10:53 pm 22:53 Clear with Smoke 73 22.8 49 9.4 43 43 Calm 29.91 1013 8 13 0.00 0.00
11:53 pm 23:53 Clear with Smoke 72 22.2 48 8.9 43 43 Calm 29.92 1013 8 13 0.00 0.00

Powered by AerisWeather